Погода в Бикмурзине

Россия / Пензенская область     52°46′53″N   46°48′58″E
темп.,
°C
ветер,
м/с
пор.,
м/с
влажн.,
%
обл.,
%
осадки,
мм/ч
давл.,
гПа
погр.,
м
29 мая, вс
вс2900:00+10зюз499414 0.0 1012248
03:00+8зюз34924 0.0 101349
06:00+11юз368682 0.0 1015197
09:00+15зюз576260 0.0 1015934
12:00+18зюз565698 0.0 10161526
15:00+15з3670100 0.1 1016134
18:00+11ссз5884100 0.1 1017434
21:00+10сз3895100 0.8 1018320
30 мая, пн
пн3000:00+10зсз2597100 4.8 1019257
03:00+10сз249670 5.1 1019176
06:00+10ссз238949 0.0 1021177
09:00+15ссз23640 0.0 1021769
12:00+18сз235160 0.0 10211434
15:00+19зсз22480 0.0 10211696
18:00+18з23635 0.0 1021146
21:00+13с227043 0.0 102311
31 мая, вт
вт3100:00+11всв228088 0.0 102326
03:00+11всв2277100 0.0 102428
06:00+13вюв347785 0.0 1024130
09:00+17ююв346150 0.0 1024795
12:00+19юв335566 0.0 10231292
15:00+21юв33515 0.0 10231499
18:00+19вюв46660 0.0 1022322
21:00+14вюв35695 0.0 102368
1 июня, ср
ср100:00+13вюв48795 0.0 1023123
03:00+12вюв478076 0.0 1023111
06:00+14вюв49775 0.0 1023266
09:00+18юв576144 0.0 1023744
12:00+21ююв56535 0.0 10231159
15:00+22ююв55507 0.0 10221291
18:00+21ююв356414 0.0 1022240
21:00+16юв46717 0.0 102285
2 июня, чт
чт200:00+15юв367044 0.0 102291
03:00+14ююв3673100 0.0 102388
06:00+16ююв4977100 0.0 1023249
09:00+19ю5863100 0.0 1023484
12:00+23ю565596 0.0 1022912
15:00+24ю565396 0.0 10221038
18:00+22ююв486632 0.0 1021299
21:00+18ююв487547 0.0 1021120